Starlink 31322

operational
NORAD ID: 59168 Int'l Des: 2024-044 Owner: SPXS Country: US Constellation: starlink
LEOCIRCULAR

About Starlink 31322

Description loading...

Live Position

Loading 3D Globe...

Upcoming Passes

Altitude History

Altitude vs Time

uPlot chart will show altitude changes over time

Two-Line Element Set

1 59168U 24044S 25312.73650065 .00001052 00000-0 47729-4 0 9999
2 59168 43.0041 70.4203 0000811 258.5678 101.5082 15.27584156 95094
Epoch: Nov 8, 2025 • Age: 41 hours

Current Status

Altitude 494.3 km
Velocity 7.62 km/s
Sub-Earth Point -39.49°S, 156.9°E
Launch Date Mar 4, 2024
Age 1.6 years
Type internet

Technical Details

Classification Payload
Mass 730.00 kg
Dry Mass 700.00 kg
Total Mass 730.00 kg
Length 0.30 m
Diameter 4.10 m
Span 29.00 m
Shape Box + pan
Manufacturer SPXS
Bus Type Starlink V2M
Phase Status In Orbit
Owner/State SPXS/US

Large Constellations

Loading constellations...